FW6216 Weather Reports


Display with metric or nautical units.
time (UTC)temp
F
wind
direction
speed
MPH
gust
MPH
rain 1hr
in
rain 24hr
in
rain mn
in
humidity
%
barometer
mb
20260906110033 52 65 2.0 8.0 0.00 0.04 0.04 90 1018.3
20260906104530 52 180 0.0 0.0 0.00 0.04 0.04 89 1018.3
20260906101534 52 232 1.0 6.0 0.01 0.04 0.04 89 1018.1
20260906100028 52 236 4.0 8.0 0.01 0.04 0.04 88 1018.3
20260906094532 52 216 5.0 12.0 0.01 0.04 0.04 87 1018.5
20260906093136 52 214 6.0 11.0 0.02 0.04 0.03 86 1018.7
20260906091529 53 195 7.0 10.0 0.02 0.03 0.03 85 1018.8
20260906090031 53 191 5.0 11.0 0.03 0.03 0.03 84 1018.8
20260906084530 53 211 4.0 9.0 0.03 0.03 0.02 83 1018.7
20260906080032 54 170 4.0 6.0 0.00 0.00 0.00 78 1018.7
20260906073041 54 180 1.0 2.0 0.00 0.00 0.00 75 1018.7
20260906071532 55 197 1.0 4.0 0.00 0.00 0.00 74 1018.8
20260906070033 55 243 0.0 0.0 0.00 0.00 0.00 74 1019.0
20260906064531 55 203 0.0 0.0 0.00 0.00 0.00 74 1019.0
20260906063028 54 241 0.0 3.0 0.00 0.00 0.00 75 1019.0
20260906061534 54 213 0.0 5.0 0.00 0.00 0.00 75 1019.0
20260906060030 53 187 1.0 4.0 0.00 0.00 0.00 74 1019.1
20260906054531 53 203 0.0 3.0 0.00 0.00 0.00 74 1019.1
20260906053031 53 227 1.0 3.0 0.00 0.00 0.00 73 1019.2
20260906051530 54 244 1.0 4.0 0.00 0.00 0.00 73 1019.3
20260906050044 53 220 2.0 4.0 0.00 0.00 0.00 72 1019.4
20260906044649 54 158 0.0 3.0 0.00 0.00 0.00 70 1019.4
20260906043106 55 205 1.0 3.0 0.00 0.00 0.00 69 1019.4
20260906041531 56 235 3.0 4.0 0.00 0.00 0.00 68 1019.4
20260906040141 56 247 0.0 3.0 0.00 0.00 0.00 67 1019.3
20260906031529 58 325 0.0 3.0 0.00 0.00 0.00 64 1018.9
20260906030034 58 267 2.0 7.0 0.00 0.00 0.00 63 1018.7
20260906024532 59 245 2.0 5.0 0.00 0.00 0.00 61 1018.8
20260906023029 60 304 2.0 6.0 0.00 0.00 0.00 59 1018.7
20260906021529 61 327 3.0 7.0 0.00 0.00 0.00 57 1018.5
20260906020029 63 332 4.0 9.0 0.00 0.00 0.00 55 1018.4
20260906013030 65 322 5.0 11.0 0.00 0.00 0.00 54 1018.4
20260906011531 65 305 5.0 10.0 0.00 0.00 0.00 54 1018.5
20260906010034 65 298 6.0 13.0 0.00 0.00 0.00 54 1018.6
20260906003032 67 310 9.0 18.0 0.00 0.00 0.00 49 1018.2
20260906001534 69 339 6.0 12.0 0.00 0.00 0.00 46 1018.2
20260906000036 70 355 4.0 11.0 0.00 0.00 0.00 46 1018.1
20260905234529 70 351 4.0 11.0 0.00 0.00 0.00 46 1018.0
20260905233029 71 10 5.0 12.0 0.00 0.00 0.00 47 1018.1
20260905231533 69 12 4.0 10.0 0.00 0.00 0.00 50 1018.3
20260905230030 67 35 4.0 9.0 0.00 0.00 0.00 50 1018.5
20260905224531 69 36 4.0 14.0 0.00 0.00 0.00 50 1018.4
20260905223030 68 21 5.0 15.0 0.00 0.01 0.00 52 1018.5
20260905221532 68 28 5.0 12.0 0.00 0.01 0.00 53 1018.7
20260905220034 68 27 5.0 13.0 0.00 0.01 0.00 54 1018.8
20260905214529 68 29 6.0 12.0 0.00 0.01 0.00 56 1019.1
20260905213033 67 5 4.0 12.0 0.00 0.01 0.00 59 1019.2
20260905211534 65 358 4.0 11.0 0.00 0.01 0.00 60 1019.3
20260905210033 65 20 3.0 9.0 0.00 0.01 0.00 62 1019.5
20260905204531 63 34 2.0 10.0 0.00 0.01 0.00 62 1019.6
20260905201530 64 355 3.0 7.0 0.00 0.01 0.00 62 1019.7
20260905194532 64 18 3.0 10.0 0.00 0.01 0.00 60 1019.8
20260905193031 65 24 3.0 11.0 0.00 0.01 0.00 61 1019.8
20260905191528 65 25 4.0 9.0 0.00 0.01 0.00 63 1019.9
20260905190143 64 21 3.0 8.0 0.00 0.01 0.00 66 1020.2
20260905184535 63 39 4.0 9.0 0.00 0.01 0.00 68 1020.3
20260905183143 61 41 5.0 13.0 0.00 0.01 0.00 70 1020.4
20260905181531 60 23 3.0 8.0 0.00 0.01 0.00 70 1020.5
20260905180037 60 25 1.0 6.0 0.00 0.01 0.00 69 1020.6
20260905174530 61 3 0.0 2.0 0.00 0.01 0.00 70 1020.5
20260905173108 60 16 1.0 5.0 0.00 0.01 0.00 72 1020.6
20260905170141 61 28 0.0 4.0 0.00 0.01 0.00 75 1020.5
20260905164536 59 6 0.0 4.0 0.00 0.01 0.00 82 1020.4
20260905163035 55 21 0.0 4.0 0.00 0.01 0.00 85 1020.5
20260905161636 54 249 0.0 0.0 0.00 0.01 0.00 85 1020.5
20260905154606 53 247 0.0 0.0 0.00 0.01 0.00 88 1020.5
20260905153036 51 247 0.0 0.0 0.00 0.01 0.00 89 1020.5
20260905151530 49 247 0.0 0.0 0.00 0.01 0.00 90 1020.5
20260905150037 48 247 0.0 2.0 0.00 0.01 0.00 91 1020.4
20260905143107 47 247 0.0 0.0 0.00 0.01 0.00 91 1020.3
20260905140031 45 170 0.0 3.0 0.00 0.01 0.00 90 1020.1
20260905134536 44 157 0.0 0.0 0.00 0.01 0.00 89 1020.0
20260905133143 45 157 0.0 2.0 0.00 0.01 0.00 89 1019.8
20260905131535 45 157 0.0 3.0 0.00 0.01 0.00 89 1019.7
20260905130031 45 157 0.0 0.0 0.00 0.01 0.00 89 1019.7
20260905124537 45 188 1.0 4.0 0.00 0.01 0.00 88 1019.6
20260905121528 47 247 0.0 1.0 0.00 0.01 0.00 86 1019.7
20260905114532 48 198 2.0 4.0 0.00 0.01 0.00 86 1019.6
20260905113034 49 193 1.0 3.0 0.00 0.01 0.00 85 1019.6